STARLINK-32363, 61678

Orbit data source: Space-Track

STARLINK-32363, 61678 is a payload satellite owned by SpaceX/Seattle (US) in LEO that was launched on Sat, 26 Oct 2024 UTC via an FALCON 9 launch vehicle from the Air Force Eastern Test Range (AFETR). Payload-class satellites include a variety of spacecraft equipped with specific instruments for various scientific and technological missions. These include communications satellites like Starlink; space stations such as the ISS; scientific satellites like the Hubble; Earth observation satellites from companies like Planet Labs, Umbra, and HawkEye 360; GPS; miniature CubeSats for education and research; and military/defense satellites.

Loading next visibility...
Identifier
61678, 2024-193T
Orbit
LEO
Country
Flag of USUS
Related business
Manufacturer
SpaceX/Seattle
Mission
Operational Commercial Communications
Bus & Motor
STARLINK V2M, Unknown motor
Mass
730 kg wet, ~700 kg dry
Launch date (UTC)
2024-10-26 (1 year ago)
Launch vehicle
FALCON 9
Launch site
Air Force Eastern Test Range (AFETR)
Object type
Payload
Rocket body
Debris
Shape & HBR
Box + 2 Pan, 17.7 m
Radar Cross Section
33.884 m², Large (>1 m²)

Expand to show TLE details & history
Last TLE update: 7 hours ago

TLE from 7 hours ago
0 STARLINK-32363
1 61678U 24193T   25290.73252333  .00000137  00000-0  16757-4 0  9994
2 61678  53.1615  34.7123 0000893 102.3444 257.7656 15.30193385 54644
Epoch: 2025-10-17T17:34Z
TLE epoch observation values (Epoch: 2025-10-17T17:34:50.015Z)
Latitude
-0.0001°
Longitude
104.53016°
Altitude
476.264 km
Speed
7.629 km/s
True Right ascension
02h 18m 50s
True Declination
0° 00' 00"
Sunlit
Object was in full shadow at epoch
Visualization orbit readout
Latitude
Unknown
Longitude
Unknown
Altitude
Unknown
Speed
Unknown
Apparent Right ascension
Unknown
Apparent Declination
Unknown
Sunlit
N/A
Visualization observer readout
Local Sidereal Time
19:39:49
Azimuth
Unknown
Elevation
Unknown
Doppler factor
Unknown
Orbital elements
Apogee altitude
476.103 km
Perigee altitude
474.879 km
Semi-major axis
6,853.628 km
Eccentricity
0.00009
Inclination
53.1615°
RAAN
34.7123°
Arg. of periapsis
102.3444°
True anomaly
257.7556°
Mean anomaly
257.7656°
Eccentric anomaly
257.7606°
Mean motion
3.82527 °/min
Orbital period
94.11 mins
BSTAR
0.000016757
Loading maneuver chart data...
Computing Atmospheric mass density...
Loading historical data...
Loading historical data...
Loading historical data...
Loading historical data...
Loading historical data...
Loading historical data...
Loading historical data...

Documentation

Showing up to 5 results
|